Home > Weather > Santander > Past weeks

Flag for Spain Past Weather in Santander, Spain — Yesterday and Last 2 Weeks

Now
72 °F

Partly sunny.


Feels Like: 69 °F
Forecast: 66 / 73 °F
Wind: 10 mph from West

Location: Santander / Parayas

Current Time: Aug 27, 2016 at 8:55:01 PM

Latest Report: Aug 27, 2016 at 8:00 PM


Visibility: 5 mi

Pressure: 30.09 "Hg

Humidity: 88%

Dew Point: 68 °F

Location of SantanderLocation

Past Weather in Santander — Graph

°F

Santander Temperature Yesterday

Maximum temperature yesterday: 81 °F (at 3:30 PM)
Minimum temperature yesterday: 68 °F (at 7:30 AM)
Average temperature yesterday: 73 °F

High & Low Weather Summary for the Past Weeks

 TemperatureHumidityPressure
High88 °F (Aug 15, 3:30 PM)100% (Aug 13, 7:00 AM)30.33 "Hg (Aug 13, 7:00 AM)
Low59 °F (Aug 13, 7:00 AM)43% (Aug 15, 3:30 PM)29.80 "Hg (Aug 19, 5:00 AM)
Average70 °F79%30.05 "Hg
* Reported Aug 12 7:00 PM — Aug 27 7:30 PM, Santander, Weather by CustomWeather, © 2016

Note: Actual official high and low records may vary slightly from our data, if they occured in-between our weather recording intervals... More about our weather records

Advertising

Santander Weather History for the Previous 24 Hours

Scroll right to see more
 ConditionsComfort  
Time TempWeatherWind HumidityBarometerVisibility
7:30 PM
Sat, Aug 27
73 °FPartly sunny.13 mph83%30.09 "Hg5 mi
7:00 PM73 °FPartly sunny.13 mph78%30.07 "Hg5 mi
6:30 PM73 °FOvercast.12 mph83%30.07 "Hg5 mi
6:00 PM73 °FOvercast.9 mph83%30.07 "Hg5 mi
5:30 PM73 °FLow clouds.10 mph83%30.07 "Hg5 mi
5:00 PM75 °FLow clouds.10 mph78%30.04 "Hg5 mi
4:30 PM75 °FLow clouds.10 mph78%30.04 "Hg4 mi
4:00 PM75 °FLow clouds.9 mph74%30.04 "Hg4 mi
3:30 PM75 °FLow clouds.10 mph78%30.04 "Hg4 mi
3:00 PM75 °FLow clouds.13 mph74%30.04 "Hg4 mi
2:30 PM75 °FPartly sunny.16 mph74%30.04 "Hg4 mi
2:00 PM73 °FFog.17 mph78%30.01 "Hg3 mi
1:30 PM75 °FFog.17 mph74%30.01 "Hg3 mi
1:00 PM77 °FPassing clouds.8 mph69%30.01 "HgN/A
12:30 PM77 °FPassing clouds.8 mph69%29.98 "HgN/A
12:00 PM75 °FSunny.2 mph78%29.98 "Hg10 mi
11:30 AM73 °FSunny.2 mph78%29.95 "Hg10 mi
11:00 AM68 °FClear.1 mph94%29.95 "Hg6 mi
10:30 AM66 °FFog.1 mph100%29.95 "Hg2 mi
10:00 AM66 °FFog.1 mph94%29.95 "Hg0 mi
9:30 AM64 °FFog.No wind100%29.95 "Hg0 mi
9:00 AM64 °FFog.1 mph100%29.95 "Hg0 mi
8:30 AM64 °FFog.No wind100%29.95 "Hg0 mi
8:00 AM64 °FFog.No wind100%29.95 "Hg0 mi
7:30 AM64 °FFog.No wind100%29.95 "Hg0 mi
7:00 AM66 °FFog.No wind94%29.95 "Hg0 mi
6:30 AM66 °FFog.No wind94%29.95 "Hg0 mi
6:00 AM64 °FFog.No wind94%29.95 "Hg1 mi
5:30 AM64 °FFog.No wind94%29.95 "Hg2 mi
5:00 AM64 °FMild.No wind100%29.95 "Hg2 mi
4:30 AM66 °FFog.No wind94%29.95 "Hg2 mi
4:00 AM64 °FFog.No wind100%29.98 "Hg3 mi
3:30 AM66 °FMild.No wind94%29.98 "Hg4 mi
3:00 AM66 °FMild.No wind94%29.98 "Hg4 mi
2:30 AM66 °FMild.No wind100%29.98 "Hg4 mi
2:00 AM66 °FClear.No wind94%30.01 "Hg4 mi
1:30 AM66 °FMild.No wind100%29.98 "Hg4 mi
1:00 AM66 °FMild.No wind100%30.01 "Hg4 mi
12:30 AM66 °FMild.No wind100%30.01 "Hg4 mi
12:00 AM68 °FMild.No wind94%30.01 "HgN/A
11:30 PM
Fri, Aug 26
68 °FClear.No wind100%30.01 "Hg10 mi
11:00 PM70 °FClear.No wind88%30.01 "Hg10 mi
10:30 PM70 °FClear.1 mph94%30.01 "Hg10 mi
10:00 PM70 °FClear.2 mph94%30.01 "Hg10 mi
9:30 PM72 °FSunny.1 mph88%30.01 "Hg10 mi
9:00 PM72 °FSunny.2 mph88%30.01 "Hg10 mi
8:30 PM72 °FPassing clouds.3 mph88%29.98 "HgN/A
8:00 PM72 °FPassing clouds.6 mph88%30.01 "HgN/A
Weather by CustomWeather, © 2016

See weather overviewHow to use our weather pages